Flag for U.S.A. Weather past 2 weeks in Provincetown, Massachusetts, U.S.A.

Now
23 °F

Passing clouds.


Feels Like: 12 °F
Forecast: 23 / 30 °F
Wind: 12 mph from North

Location: Provincetown Weather Reporting Station

Current Time: Mar 5, 2015 at 6:32:56 PM

Latest Report: Mar 5, 2015 at 5:55 PM


Visibility: 4 mi

Pressure: 30.15 "Hg

Humidity: 74%

Dew point: 16 °F

Location of ProvincetownLocation

Historic Weather in Provincetown — Graph

°F

Provincetown temperature yesterday

Maximum temperature yesterday: 39 °F (at 3:15 AM)
Minimum temperature yesterday: 34 °F (at 12:15 AM)
Average temperature yesterday: 36 °F

Past Weeks' High & Low Weather Summary

 TemperatureHumidityPressure
High43 °F (Feb 22, 2:15 AM)100% (Feb 25, 1:35 AM)30.75 "Hg (Feb 25, 1:35 AM)
Low7 °F (Mar 1, 5:15 AM)36% (Feb 28, 12:15 AM)29.53 "Hg (Feb 19, 1:35 PM)
Average26 °F66%30.13 "Hg
* Reported Feb 18 5:15 PM — Mar 5 5:35 PM, Provincetown, Weather by CustomWeather, © 2015

Note: Actual official high and low records may vary slightly from our data, if they occured in-between our weather recording intervals... More about our weather records

Advertising

Provincetown weather history for previous 24 hours

 ConditionsComfort  
Time TempWeatherWind HumidityBarometerVisibility
5:35 PM
Thu, Mar 5
25 °FClear.9 mph59%30.14 "Hg5 mi
4:55 PM25 °FSunny.7 mph69%30.13 "Hg5 mi
4:35 PM25 °FSunny.10 mph63%30.13 "Hg8 mi
3:55 PM27 °FSunny.14 mph54%30.11 "Hg10 mi
3:35 PM25 °FSunny.8 mph63%30.12 "Hg7 mi
3:15 PM25 °FPartly sunny.No wind69%30.11 "Hg2 mi
2:55 PM25 °FOvercast.8 mph80%30.08 "Hg1 mi
2:35 PM25 °FLow clouds.7 mph80%30.12 "Hg1 mi
2:15 PM25 °FLow clouds.12 mph80%30.10 "Hg1 mi
1:55 PM25 °FLow clouds.12 mph86%30.10 "Hg1 mi
1:35 PM25 °FLow clouds.12 mph86%30.11 "Hg1 mi
12:55 PM27 °FMostly cloudy.12 mph80%30.06 "Hg1 mi
12:35 PM27 °FLow clouds.13 mph80%30.05 "Hg1 mi
12:15 PM27 °FOvercast.14 mph80%30.06 "Hg1 mi
11:55 AM27 °FOvercast.13 mph93%30.06 "Hg1 mi
11:35 AM28 °FLow clouds.13 mph80%30.06 "Hg1 mi
11:15 AM28 °FMostly cloudy.14 mph86%30.07 "Hg1 mi
10:55 AM28 °FScattered clouds.13 mph80%30.07 "Hg2 mi
10:35 AM28 °FPartly sunny.9 mph86%30.05 "Hg2 mi
10:15 AM28 °FOvercast.15 mph86%30.06 "Hg1 mi
9:55 AM28 °FOvercast.17 mph80%30.06 "Hg1 mi
9:35 AM30 °FOvercast.16 mph69%30.05 "Hg2 mi
9:15 AM28 °FOvercast.9 mph80%30.04 "Hg2 mi
8:55 AM30 °FMore clouds than sun.17 mph80%30.04 "Hg1 mi
8:35 AM30 °FLow clouds.16 mph86%30.03 "Hg1 mi
8:15 AM30 °FLow clouds.14 mph93%30.02 "Hg1 mi
7:55 AM30 °FLow clouds.10 mph93%30.02 "Hg1 mi
7:35 AM30 °FLow clouds.10 mph93%30.01 "Hg1 mi
7:15 AM30 °FLow clouds.10 mph86%29.99 "Hg1 mi
6:55 AM30 °FLow clouds.8 mph93%29.98 "Hg1 mi
6:35 AM32 °FLow clouds.10 mph87%29.98 "Hg1 mi
6:15 AM32 °FLow clouds.7 mph93%29.98 "Hg1 mi
5:55 AM34 °FMostly cloudy.8 mph87%29.97 "Hg1 mi
5:35 AM34 °FLow clouds.7 mph87%29.95 "Hg1 mi
5:15 AM34 °FLow clouds.8 mph87%29.92 "Hg1 mi
4:55 AM34 °FLow clouds.9 mph87%29.91 "Hg1 mi
4:35 AM34 °FLow clouds.12 mph87%29.92 "Hg2 mi
4:15 AM34 °FPassing clouds.12 mph87%29.91 "Hg2 mi
3:55 AM34 °FClear.12 mph87%29.89 "Hg4 mi
3:35 AM34 °FPartly cloudy.10 mph93%29.87 "Hg5 mi
3:15 AM34 °FMostly cloudy.13 mph87%29.87 "Hg3 mi
2:55 AM36 °FPassing clouds.8 mph93%29.87 "Hg5 mi
2:35 AM36 °FOvercast.8 mph87%29.86 "Hg5 mi
2:15 AM36 °FOvercast.8 mph87%29.87 "Hg5 mi
1:55 AM36 °FOvercast.8 mph87%29.87 "Hg4 mi
1:35 AM36 °FPassing clouds.9 mph87%29.86 "Hg4 mi
1:15 AM36 °FClear.8 mph87%29.86 "Hg5 mi
12:55 AM36 °FClear.9 mph87%29.86 "Hg5 mi
12:35 AM36 °FClear.7 mph87%29.87 "Hg5 mi
12:15 AM36 °FClear.8 mph87%29.87 "Hg5 mi
11:55 PM
Wed, Mar 4
36 °FClear.8 mph93%29.86 "Hg5 mi
11:35 PM36 °FClear.9 mph93%29.86 "Hg6 mi
11:15 PM36 °FClear.10 mph93%29.87 "Hg6 mi
10:35 PM36 °FClear.8 mph93%29.87 "Hg7 mi
10:15 PM36 °FClear.9 mph93%29.86 "Hg7 mi
9:55 PM36 °FClear.7 mph93%29.85 "Hg6 mi
9:15 PM36 °FClear.8 mph87%29.85 "Hg6 mi
8:55 PM36 °FClear.8 mph93%29.86 "Hg7 mi
8:35 PM36 °FClear.10 mph87%29.83 "Hg8 mi
8:15 PM36 °FClear.12 mph87%29.83 "Hg10 mi
7:55 PM36 °FClear.12 mph93%29.84 "Hg8 mi
7:35 PM36 °FClear.13 mph87%29.85 "Hg8 mi
7:15 PM36 °FClear.12 mph87%29.85 "Hg7 mi
6:55 PM36 °FClear.13 mph93%29.85 "Hg7 mi
6:35 PM36 °FClear.13 mph93%29.84 "Hg7 mi
6:15 PM36 °FClear.14 mph87%29.83 "Hg6 mi
Weather by CustomWeather, © 2015

See weather overviewHow to use our weather pages